          31 12  03 41.83  +31 49.1   7.405  7.784     0.2 / 299  17.5   11  .71

     Feb.  1 12  03 41.81  +31 49.2   7.415  7.779     0.1 / 333  17.5   19  .79

           2 12  03 41.80  +31 49.4   7.426  7.774     0.2 /  23  17.5   29  .86

           3 12  03 41.81  +31 49.5   7.436  7.769     0.3 /  48  17.5   41  .92

           4 12  03 41.83  +31 49.7   7.447  7.764     0.4 /  59  17.5   53  .96

           5 12  03 41.85  +31 49.9   7.458  7.759     0.5 /  64  17.5   65  .99

           6 12  03 41.89  +31 50.1   7.469  7.754     0.6 /  67  17.5   77 1.00

           7 12  03 41.93  +31 50.4   7.479  7.749     0.8 /  69  17.5   90  .98

           8 12  03 41.99  +31 50.7   7.490  7.744     0.9 /  71  17.5  103  .95

           9 12  03 42.06  +31 50.9   7.501  7.739     1.0 /  72  17.5  116  .89

          10 12  03 42.13  +31 51.3   7.512  7.734     1.2 /  73  17.5  129  .82

          11 12  03 42.22  +31 51.6   7.523  7.729     1.3 /  73  17.5  142  .72

          12 12  03 42.32  +31 52.0   7.535  7.724     1.4 /  74  17.5  155  .62

          13 12  03 42.43  +31 52.4   7.546  7.719     1.6 /  74  17.5  167  .51

          14 12  03 42.55  +31 52.8   7.557  7.714     1.7 /  75  17.5  168  .39

          15 12  03 42.68  +31 53.3   7.568  7.709     1.8 /  75  17.5  158  .29

          16 12  03 42.81  +31 53.7   7.579  7.704     2.0 /  75  17.5  144  .19

          17 12  03 42.96  +31 54.3   7.591  7.699     2.1 /  75  17.5  131  .11

          18 12  03 43.12  +31 54.8   7.602  7.694     2.2 /  75  17.6  117  .05

          19 12  03 43.29  +31 55.3   7.613  7.689     2.4 /  75  17.6  103  .01

          20 12  03 43.47  +31 55.9   7.624  7.684     2.5 /  76  17.6   89  .00

          21 12  03 43.66  +31 56.6   7.636  7.679     2.6 /  76  17.6   76  .02

          22 12  03 43.86  +31 57.2   7.647  7.674     2.7 /  76  17.6   63  .05

          23 12  03 44.07  +31 57.9   7.658  7.669     2.9 /  76  17.6   50  .11

          24 12  03 44.28  +31 58.6   7.669  7.664     3.0 /  76  17.6   38  .18

          25 12  03 44.51  +31 59.3   7.681  7.659     3.1 /  76  17.6   27  .26

          26 12  03 44.75  +32 00.1   7.692  7.654     3.2 /  76  17.6   16  .35

          27 12  03 45.00  +32 00.9   7.703  7.649     3.4 /  76  17.6   10  .44

          28 12  03 45.25  +32 01.7   7.714  7.644     3.5 /  76  17.6   15  .53

          29 12  03 45.52  +32 02.6   7.725  7.639     3.6 /  76  17.6   25  .63

     Mar.  1 12  03 45.80  +32 03.4   7.736  7.634     3.7 /  76  17.6   36  .72

NAKANO

         **** Don't distribute anyone except personal use only ****

                (C) Copyright 2004 OAA/ComputingSection

write mail from CFAD0::NAKANO on 2004-01-20 06:03:35(JST).

 

◎2003 WT42の軌道と予報位置です



 11月25日のシェロ−ドの観測によると,8"ほどのコマ(m1= 17.5等)が

見られるとのことですが,他からの報告は,まだ,ないようです.



2003 WT42                                                           

Epoch 2003 Dec. 27.0 TT = JDT 2453000.5  

T 2006 Apr. 11.25910 TT                                 Nakano

q   5.2509019            (2000.0)            P               Q

z  +0.0027302      Peri.   91.84768     -0.66001889     -0.64419440

 +/-0.0012887      Node    48.30692     +0.29399709     -0.69494138

e   0.9856639      Incl.   31.17201     +0.69133261     -0.31948403

From 109 observations 2003 Oct. 30-Nov. 26, mean residual 0".46.

 

Date/        TT  R.A.(2000) Decl.     Delta   r     Daily motion  Mag.  Moon Age

              h    h  m       。  ,                      ,  / PA 。  m1      。

2003 Nov. 25 12  04 01.97  +31 47.8   7.131  8.102     5.8 / 276  17.1  159  .04

          26 12  04 01.52  +31 48.4   7.126  8.097     5.8 / 275  17.1  145  .10

          27 12  04 01.07  +31 48.9   7.121  8.092     5.8 / 275  17.1  131  .18

          28 12  04 00.62  +31 49.4   7.117  8.087     5.8 / 275  17.1  117  .27

          29 12  04 00.16  +31 49.9   7.113  8.082     5.8 / 275  17.1  103  .37

          30 12  03 59.71  +31 50.4   7.109  8.077     5.8 / 274  17.1   90  .48

     Dec.  1 12  03 59.26  +31 50.8   7.105  8.072     5.8 / 274  17.1   77  .58

           2 12  03 58.81  +31 51.2   7.102  8.067     5.7 / 274  17.1   65  .68

           3 12  03 58.36  +31 51.5   7.099  8.062     5.7 / 273  17.1   53  .76

           4 12  03 57.91  +31 51.9   7.096  8.057     5.7 / 273  17.1   41  .84

           5 12  03 57.47  +31 52.2   7.094  8.052     5.7 / 273  17.0   30  .90

           6 12  03 57.02  +31 52.4   7.092  8.047     5.6 / 273  17.0   19  .95

           7 12  03 56.58  +31 52.7   7.090  8.042     5.6 / 272  17.0   11  .98

           8 12  03 56.14  +31 52.9   7.089  8.037     5.6 / 272  17.0   13 1.00

           9 12  03 55.70  +31 53.1   7.087  8.032     5.5 / 272  17.0   22 1.00

          10 12  03 55.27  +31 53.3   7.087  8.027     5.5 / 272  17.0   33  .97

          11 12  03 54.84  +31 53.4   7.086  8.022     5.4 / 271  17.0   45  .94

          12 12  03 54.41  +31 53.5   7.086  8.017     5.4 / 271  17.0   57  .88

          13 12  03 53.99  +31 53.6   7.086  8.012     5.3 / 271  17.0   69  .81

          14 12  03 53.57  +31 53.7   7.086  8.007     5.3 / 271  17.0   81  .73

          15 12  03 53.15  +31 53.8   7.087  8.002     5.2 / 270  17.0   94  .63

          16 12  03 52.74  +31 53.8   7.088  7.997     5.2 / 270  17.0  107  .53

          17 12  03 52.34  +31 53.8   7.089  7.992     5.1 / 270  17.0  120  .42

          18 12  03 51.93  +31 53.8   7.091  7.987     5.1 / 270  17.0  134  .31

          19 12  03 51.54  +31 53.7   7.093  7.982     5.0 / 269  17.0  148  .21

          20 12  03 51.15  +31 53.7   7.095  7.977     4.9 / 269  17.0  161  .12

          21 12  03 50.76  +31 53.6   7.097  7.972     4.8 / 269  17.0  170  .05

          22 12  03 50.38  +31 53.6   7.100  7.967     4.8 / 269  17.0  163  .01

          23 12  03 50.01  +31 53.5   7.103  7.962     4.7 / 269  17.0  149  .00

          24 12  03 49.64  +31 53.4   7.106  7.957     4.6 / 269  17.0  135  .02

          25 12  03 49.28  +31 53.2   7.109  7.952     4.5 / 268  17.0  120  .06

          26 12  03 48.92  +31 53.1   7.113  7.947     4.4 / 268  17.0  106  .13

          27 12  03 48.58  +31 53.0   7.117  7.942     4.3 / 268  17.0   93  .22

          28 12  03 48.24  +31 52.8   7.121  7.937     4.2 / 268  17.0   79  .31

          29 12  03 47.90  +31 52.7   7.126  7.932     4.1 / 268  17.0   67  .41

          30 12  03 47.58  +31 52.5   7.131  7.927     4.1 / 268  17.0   54  .51

          31 12  03 47.26  +31 52.3   7.136  7.922     4.0 / 267  17.0   42  .60

2004 Jan.  1 12  03 46.95  +31 52.1   7.141  7.917     3.9 / 267  17.0   31  .70

NAKANO

         **** Don't distribute anyone except personal use only ****

                (C) Copyright 2003 OAA/ComputingSection

write mail from CFAD0::NAKANO on 2003-11-29 04:25:43(JST).

 



戻ります。